period_start,C,m1,H,J0,J1,J2,J3,J4,J5,JA,JB,JC,JD,JJ,JK,JN,#
2016-09-21 00:04:15,0.01,1.45,0.00,18.27,24.60,27.88,14.90,48.43,1014.66,2047.00,2944.16,2763.99,3125.00,599.91,604.58,52.94,0000 0000 0000 0000 000000
2016-09-21 00:09:16,0.02,1.45,0.00,18.27,24.60,27.89,14.84,48.34,1014.66,2047.00,2944.00,2763.82,3124.65,600.08,604.62,52.99,0000 0000 0000 0000 000000
2016-09-21 00:14:18,0.03,1.46,0.00,18.29,24.61,27.90,14.86,48.27,1014.66,2047.00,2943.80,2763.17,3124.06,599.88,604.40,53.04,0000 0000 0000 0000 000000
2016-09-21 00:19:20,0.01,1.46,0.00,18.34,24.62,27.89,14.92,48.39,1014.66,2047.00,2943.14,2763.00,3124.00,600.04,604.48,53.09,0000 0000 0000 0000 000000
2016-09-21 00:24:21,0.00,1.46,0.00,18.41,24.64,27.94,14.80,48.26,1014.66,2047.00,2943.03,2763.00,3123.99,600.09,604.42,53.14,0000 0000 0000 0000 000000
2016-09-21 00:29:22,0.01,1.46,0.00,18.41,24.65,27.96,14.90,48.42,1014.64,2047.00,2943.01,2762.97,3123.75,600.03,604.28,53.19,0000 0000 0000 0000 000000
2016-09-21 00:34:24,0.02,1.46,0.00,18.39,24.67,27.96,14.92,48.63,1014.55,2047.00,2942.95,2762.71,3123.08,600.08,604.30,53.24,0000 0000 0000 0000 000000
2016-09-21 00:39:25,0.02,1.46,0.00,18.48,24.68,27.99,14.90,48.44,1014.32,2047.00,2942.59,2762.19,3123.01,599.77,603.75,53.29,0000 0000 0000 0000 000000
2016-09-21 00:44:26,0.00,1.46,0.00,18.41,24.70,27.98,14.83,48.39,1014.22,2047.00,2942.09,2762.02,3123.00,599.92,603.81,53.34,0000 0000 0000 0000 000000
2016-09-21 00:49:27,0.00,1.46,0.00,18.40,24.72,27.99,14.86,48.42,1014.20,2047.00,2942.00,2762.00,3122.95,599.69,603.72,53.39,0000 0000 0000 0000 000000
2016-09-21 00:54:28,0.01,1.46,0.00,18.44,24.73,28.00,14.92,48.33,1014.21,2047.00,2941.98,2761.99,3122.51,600.05,603.84,53.44,0000 0000 0000 0000 000000
2016-09-21 00:59:30,0.01,1.46,0.00,18.54,24.75,28.00,14.87,48.39,1014.23,2046.99,2941.77,2761.94,3122.04,600.06,603.74,53.49,0000 0000 0000 0000 000000
2016-09-21 01:04:31,0.03,1.46,0.00,18.52,24.77,28.05,14.84,48.17,1014.22,2046.98,2941.23,2761.47,3122.00,600.11,603.95,53.54,0000 0000 0000 0000 000000
2016-09-21 01:09:32,0.00,1.46,0.00,18.54,24.78,28.11,14.82,48.18,1014.21,2046.97,2941.00,2761.03,3121.99,599.74,603.59,53.59,0000 0000 0000 0000 000000
2016-09-21 01:14:34,-0.00,1.46,0.00,18.58,24.80,28.13,14.78,48.27,1014.20,2046.92,2940.99,2761.00,3121.70,599.95,603.67,53.64,0000 0000 0000 0000 000000
2016-09-21 01:19:35,0.01,1.46,0.00,18.64,24.82,28.12,14.82,48.13,1014.19,2046.87,2940.69,2760.99,3121.11,600.11,603.58,53.69,0000 0000 0000 0000 000000
2016-09-21 01:24:36,-0.02,1.46,0.00,18.64,24.85,28.12,14.82,48.02,1014.19,2046.51,2940.07,2760.80,3121.01,600.05,603.64,53.75,0000 0000 0000 0000 000000
2016-09-21 01:29:37,-0.01,1.46,0.00,18.71,24.86,28.17,14.86,48.28,1014.18,2046.09,2940.00,2760.10,3120.98,599.65,602.93,53.80,0000 0000 0000 0000 000000
2016-09-21 01:34:39,0.00,1.46,0.00,18.80,24.89,28.20,14.83,48.28,1014.18,2046.04,2940.00,2760.01,3120.75,600.00,603.20,53.85,0000 0000 0000 0000 000000
2016-09-21 01:39:40,0.00,1.46,0.00,18.83,24.91,28.22,14.82,48.20,1014.16,2046.00,2939.98,2760.00,3120.08,599.65,602.67,53.90,0000 0000 0000 0000 000000
2016-09-21 01:44:41,0.01,1.46,0.00,18.80,24.93,28.19,14.77,48.05,1014.13,2046.00,2939.54,2760.00,3120.00,599.97,603.11,53.95,0000 0000 0000 0000 000000
2016-09-21 01:49:43,0.01,1.46,0.00,18.83,24.95,28.27,14.80,48.17,1013.99,2046.00,2939.12,2759.91,3120.00,599.71,602.77,54.00,0000 0000 0000 0000 000000
2016-09-21 01:54:44,0.02,1.47,0.00,18.89,24.97,28.31,14.85,48.38,1013.72,2045.99,2939.00,2759.29,3119.94,599.87,602.59,54.05,0000 0000 0000 0000 000000
2016-09-21 01:59:46,0.01,1.47,0.00,18.89,24.99,28.33,14.82,48.11,1013.69,2045.98,2938.96,2759.03,3119.47,600.01,602.66,54.10,0000 0000 0000 0000 000000
2016-09-21 02:04:47,0.02,1.47,0.00,18.92,25.01,28.33,14.83,48.23,1013.70,2045.97,2938.38,2759.00,3119.02,600.40,603.03,54.15,0000 0000 0000 0000 000000
2016-09-21 02:09:48,-0.00,1.47,0.00,18.94,25.03,28.35,14.81,48.15,1013.70,2045.96,2938.07,2758.99,3119.00,600.09,602.65,54.20,0000 0000 0000 0000 000000
2016-09-21 02:14:50,-0.02,1.47,0.00,19.00,25.06,28.38,14.81,48.17,1013.70,2045.81,2938.00,2758.81,3118.97,600.22,602.67,54.25,0000 0000 0000 0000 000000
2016-09-21 02:19:51,-0.02,1.47,0.00,19.02,25.08,28.41,14.75,48.16,1013.70,2045.33,2937.98,2758.19,3118.62,599.64,602.04,54.30,0000 0000 0000 0000 000000
2016-09-21 02:24:52,0.00,1.47,0.00,19.04,25.11,28.44,14.86,48.17,1013.69,2045.05,2937.77,2758.02,3118.06,600.12,602.49,54.35,0000 0000 0000 0000 000000
2016-09-21 02:29:53,0.00,1.47,0.00,18.97,25.13,28.48,14.84,48.42,1013.68,2045.02,2937.34,2758.00,3118.00,599.72,602.22,54.40,0000 0000 0000 0000 000000
2016-09-21 02:34:55,0.00,1.47,0.00,19.05,25.16,28.48,14.83,48.27,1013.39,2045.00,2937.04,2757.99,3118.00,599.98,602.21,54.45,0000 0000 0000 0000 000000
2016-09-21 02:39:56,0.00,1.47,0.00,19.13,25.18,28.51,14.79,48.37,1013.20,2045.00,2937.00,2757.91,3117.88,599.62,601.47,54.50,0000 0000 0000 0000 000000
2016-09-21 02:44:57,0.02,1.47,0.00,19.17,25.20,28.54,14.84,48.17,1013.20,2045.00,2936.99,2757.64,3117.45,600.21,602.02,54.55,0000 0000 0000 0000 000000
2016-09-21 02:49:59,0.02,1.47,0.00,19.16,25.22,28.58,14.84,48.39,1013.20,2045.00,2936.95,2757.21,3117.08,600.06,601.92,54.60,0000 0000 0000 0000 000000
2016-09-21 02:55:00,0.01,1.47,0.00,19.15,25.25,28.61,14.75,48.08,1013.20,2044.96,2936.55,2757.01,3117.01,600.20,602.07,54.66,0000 0000 0000 0000 000000
2016-09-21 03:00:01,0.01,1.47,0.00,19.23,25.27,28.65,14.85,48.28,1013.20,2044.93,2936.02,2757.00,3116.98,599.82,601.34,54.71,0000 0000 0000 0000 000000
2016-09-21 03:05:03,-0.02,1.47,0.00,19.20,25.30,28.65,14.78,48.18,1013.20,2044.78,2935.99,2756.98,3116.85,599.99,601.71,54.76,0000 0000 0000 0000 000000
2016-09-21 03:10:04,-0.01,1.47,0.00,19.30,25.32,28.70,14.80,48.19,1013.20,2044.45,2935.97,2756.84,3116.25,599.84,601.21,54.81,0000 0000 0000 0000 000000
2016-09-21 03:15:05,0.01,1.47,0.00,19.28,25.35,28.72,14.75,47.99,1013.15,2044.15,2935.60,2756.24,3116.01,600.20,601.62,54.86,0000 0000 0000 0000 000000
2016-09-21 03:20:06,0.00,1.47,0.00,19.35,25.38,28.74,14.82,48.31,1012.85,2044.02,2935.09,2756.01,3116.00,600.20,601.43,54.91,0000 0000 0000 0000 000000
2016-09-21 03:25:07,0.00,1.47,0.00,19.44,25.41,28.75,14.76,48.20,1012.72,2044.00,2935.02,2756.00,3115.92,600.02,600.94,54.96,0000 0000 0000 0000 000000
2016-09-21 03:30:08,0.01,1.47,0.00,19.44,25.43,28.77,14.83,48.42,1012.71,2044.00,2935.00,2755.97,3115.40,600.18,601.24,55.01,0000 0000 0000 0000 000000
2016-09-21 03:35:09,0.00,1.47,0.00,19.51,25.46,28.82,14.70,48.08,1012.71,2043.99,2934.98,2755.88,3115.03,599.85,600.59,55.06,0000 0000 0000 0000 000000
2016-09-21 03:40:11,0.02,1.47,0.00,19.57,25.49,28.86,14.75,48.10,1012.68,2043.97,2934.80,2755.32,3115.00,600.28,600.79,55.11,0000 0000 0000 0000 000000
2016-09-21 03:45:12,-0.00,1.47,0.00,19.61,25.51,28.91,14.78,48.25,1012.64,2043.84,2934.22,2755.03,3114.99,600.32,600.90,55.16,0000 0000 0000 0000 000000
2016-09-21 03:50:13,-0.03,1.47,0.00,19.60,25.54,28.95,14.76,48.26,1012.52,2043.43,2934.01,2755.00,3114.78,599.92,600.31,55.21,0000 0000 0000 0000 000000
2016-09-21 03:55:14,-0.01,1.47,0.00,19.63,25.57,29.01,14.81,48.35,1012.44,2043.08,2934.00,2754.99,3114.11,600.22,600.69,55.26,0000 0000 0000 0000 000000
2016-09-21 04:00:16,0.01,1.47,0.00,19.64,25.60,29.02,14.82,48.14,1012.30,2043.00,2933.89,2754.80,3114.00,600.48,600.81,55.31,0000 0000 0000 0000 000000
2016-09-21 04:05:17,0.02,1.47,0.00,19.62,25.63,29.05,14.80,48.18,1012.24,2043.00,2933.55,2754.38,3114.00,600.38,600.69,55.36,0000 0000 0000 0000 000000
2016-09-21 04:10:18,0.02,1.47,0.00,19.64,25.66,29.08,14.81,48.31,1012.22,2043.00,2933.02,2754.03,3113.86,600.19,600.35,55.41,0000 0000 0000 0000 000000
2016-09-21 04:15:19,0.01,1.47,0.00,19.70,25.68,29.11,14.77,48.38,1011.98,2042.99,2932.97,2754.00,3113.12,600.06,600.08,55.46,0000 0000 0000 0000 000000
2016-09-21 04:20:20,0.01,1.47,0.00,19.74,25.71,29.14,14.78,48.48,1011.73,2042.97,2932.73,2753.82,3113.00,600.05,599.79,55.51,0000 0000 0000 0000 000000
2016-09-21 04:25:22,-0.00,1.47,0.00,19.70,25.74,29.17,14.74,48.68,1011.73,2042.75,2932.07,2753.15,3112.84,599.84,599.72,55.56,0000 0000 0000 0000 000000
2016-09-21 04:30:23,-0.03,1.47,0.00,19.71,25.77,29.20,14.72,48.48,1011.79,2042.16,2931.99,2753.01,3112.13,599.79,599.67,55.61,0000 0000 0000 0000 000000
2016-09-21 04:35:24,-0.00,1.47,0.00,19.68,25.80,29.21,14.72,48.34,1012.18,2042.02,2931.96,2753.00,3112.00,599.83,600.10,55.67,0000 0000 0000 0000 000000
2016-09-21 04:40:25,0.01,1.47,0.00,19.78,25.82,29.24,14.76,48.07,1012.22,2042.00,2931.50,2752.93,3112.00,600.15,600.35,55.72,0000 0000 0000 0000 000000
2016-09-21 04:45:27,0.02,1.47,0.00,19.83,25.85,29.27,14.73,47.98,1012.22,2042.00,2931.08,2752.50,3111.86,600.29,600.20,55.77,0000 0000 0000 0000 000000
2016-09-21 04:50:28,0.02,1.47,0.00,19.85,25.87,29.29,14.80,47.96,1012.22,2042.00,2931.00,2752.06,3111.33,600.22,600.16,55.82,0000 0000 0000 0000 000000
2016-09-21 04:55:29,0.00,1.47,0.00,19.86,25.90,29.29,14.77,48.10,1012.21,2041.99,2930.97,2752.01,3111.02,599.90,599.68,55.87,0000 0000 0000 0000 000000
2016-09-21 05:00:30,0.00,1.47,0.00,19.85,25.93,29.33,14.71,47.94,1012.21,2041.97,2930.93,2752.00,3111.00,599.97,599.87,55.92,0000 0000 0000 0000 000000
2016-09-21 05:05:31,-0.01,1.47,0.00,19.88,25.95,29.35,14.71,47.99,1012.12,2041.74,2930.56,2751.99,3110.95,599.90,599.61,55.97,0000 0000 0000 0000 000000
2016-09-21 05:10:32,-0.03,1.47,0.00,19.97,25.98,29.38,14.78,48.10,1012.09,2041.17,2930.10,2751.80,3110.48,600.72,600.20,56.02,0000 0000 0000 0000 000000
2016-09-21 05:15:34,0.02,1.47,0.00,19.94,26.01,29.41,14.77,48.03,1011.81,2041.05,2930.01,2751.23,3110.07,600.24,599.47,56.07,0000 0000 0000 0000 000000
2016-09-21 05:20:35,0.00,1.47,0.00,20.00,26.03,29.44,14.71,48.10,1011.74,2041.00,2930.00,2751.02,3110.00,600.00,599.28,56.12,0000 0000 0000 0000 000000
2016-09-21 05:25:36,0.01,1.47,0.00,20.04,26.06,29.47,14.71,48.00,1011.73,2041.00,2929.73,2751.00,3109.98,600.07,598.98,56.17,0000 0000 0000 0000 000000
2016-09-21 05:30:38,0.00,1.47,0.00,20.01,26.09,29.50,14.72,48.29,1011.67,2041.00,2929.34,2751.00,3109.94,599.84,599.02,56.22,0000 0000 0000 0000 000000
2016-09-21 05:35:39,0.01,1.47,0.00,20.00,26.11,29.52,14.74,48.12,1011.70,2040.99,2929.03,2750.97,3109.37,600.06,599.27,56.27,0000 0000 0000 0000 000000
2016-09-21 05:40:40,0.01,1.47,0.00,20.05,26.14,29.54,14.69,48.16,1011.66,2040.99,2929.00,2750.75,3109.04,600.27,599.29,56.32,0000 0000 0000 0000 000000
2016-09-21 05:45:41,0.01,1.47,0.00,20.04,26.16,29.55,14.70,48.08,1011.43,2040.97,2928.97,2750.26,3109.00,600.45,599.31,56.37,0000 0000 0000 0000 000000
2016-09-21 05:50:43,0.01,1.48,0.00,20.09,26.19,29.58,14.69,48.04,1011.30,2040.94,2928.88,2750.03,3109.00,599.86,598.78,56.42,0000 0000 0000 0000 000000
2016-09-21 05:55:44,-0.02,1.48,0.00,20.16,26.22,29.61,14.69,48.06,1011.26,2040.70,2928.41,2750.00,3108.90,599.57,598.28,56.47,0000 0000 0000 0000 000000
2016-09-21 06:00:45,-0.01,1.47,0.00,20.16,26.24,29.63,14.64,48.09,1011.26,2040.30,2928.02,2750.00,3108.39,599.94,598.75,56.52,0000 0000 0000 0000 000000
2016-09-21 06:05:46,-0.01,1.47,0.00,20.15,26.26,29.66,14.80,48.17,1011.26,2040.08,2928.00,2749.93,3108.03,600.03,598.65,56.57,0000 0000 0000 0000 000000
2016-09-21 06:10:48,0.01,1.47,0.00,20.18,26.29,29.65,14.72,48.02,1011.26,2040.01,2927.97,2749.57,3108.00,600.10,598.71,56.63,0000 0000 0000 0000 000000
2016-09-21 06:15:49,0.02,1.47,0.00,20.12,26.31,29.66,14.74,48.02,1011.25,2040.00,2927.52,2749.12,3107.96,599.86,598.64,56.68,0000 0000 0000 0000 000000
2016-09-21 06:20:51,0.01,1.48,0.00,20.16,26.33,29.69,14.71,48.05,1011.25,2040.00,2927.03,2749.00,3107.52,599.92,598.45,56.73,0000 0000 0000 0000 000000
2016-09-21 06:25:52,0.00,1.48,0.00,20.20,26.36,29.69,14.69,47.83,1011.25,2039.99,2927.00,2749.00,3107.05,600.17,598.71,56.78,0000 0000 0000 0000 000000
2016-09-21 06:30:53,0.00,1.48,0.00,20.23,26.38,29.74,14.80,48.34,1011.22,2039.99,2926.99,2748.96,3107.01,600.28,598.63,56.83,0000 0000 0000 0000 000000
2016-09-21 06:35:55,0.01,1.48,0.00,20.25,26.40,29.75,14.71,48.17,1010.95,2039.99,2926.74,2748.77,3107.00,600.31,598.54,56.88,0000 0000 0000 0000 000000
2016-09-21 06:40:55,0.02,1.48,0.00,20.25,26.42,29.78,14.74,48.18,1010.77,2039.97,2926.28,2748.26,3106.97,600.16,598.23,56.93,0000 0000 0000 0000 000000
2016-09-21 06:45:57,0.01,1.48,0.00,20.22,26.45,29.80,14.68,48.17,1010.76,2039.91,2926.01,2748.02,3106.54,600.38,598.59,56.98,0000 0000 0000 0000 000000
2016-09-21 06:50:58,-0.04,1.48,0.00,20.20,26.47,29.80,14.72,48.15,1010.76,2039.60,2926.00,2748.00,3106.06,600.15,598.45,57.03,0000 0000 0000 0000 000000
2016-09-21 06:55:59,-0.02,1.48,0.00,20.23,26.49,29.80,14.64,48.17,1010.76,2039.19,2925.98,2747.99,3106.00,599.82,597.96,57.08,0000 0000 0000 0000 000000
2016-09-21 07:01:00,-0.01,1.48,0.00,20.26,26.51,29.84,14.74,48.22,1010.75,2039.08,2925.87,2747.97,3106.00,599.75,597.94,57.13,0000 0000 0000 0000 000000
2016-09-21 07:06:01,0.02,1.48,0.00,20.21,26.53,29.84,14.73,48.30,1010.63,2039.04,2925.35,2747.84,3105.99,599.71,597.93,57.18,0000 0000 0000 0000 000000
2016-09-21 07:11:03,0.02,1.48,0.00,20.31,26.55,29.86,14.74,48.38,1010.34,2039.02,2925.03,2747.35,3105.80,600.16,598.07,57.23,0000 0000 0000 0000 000000
2016-09-21 07:16:05,0.02,1.48,0.00,20.39,26.57,29.91,14.61,47.92,1010.31,2039.00,2925.00,2747.02,3105.11,599.56,597.07,57.28,0000 0000 0000 0000 000000
2016-09-21 07:21:06,0.00,1.48,0.00,20.31,26.59,29.92,14.83,48.38,1010.30,2039.00,2924.94,2747.00,3105.00,600.37,598.05,57.33,0000 0000 0000 0000 000000
2016-09-21 07:26:07,0.00,1.48,0.00,20.31,26.60,29.96,14.67,48.26,1010.27,2038.99,2924.56,2746.99,3104.99,600.12,597.78,57.38,0000 0000 0000 0000 000000
2016-09-21 07:31:09,0.00,1.48,0.00,20.37,26.62,29.98,14.74,48.06,1010.27,2038.97,2924.08,2746.95,3104.96,600.28,597.89,57.43,0000 0000 0000 0000 000000
2016-09-21 07:36:10,0.01,1.48,0.00,20.50,26.64,29.99,14.72,48.27,1010.22,2038.93,2924.00,2746.55,3104.65,600.28,597.50,57.48,0000 0000 0000 0000 000000
2016-09-21 07:41:11,0.00,1.48,0.00,20.50,26.66,29.99,14.67,48.29,1009.97,2038.78,2924.00,2746.18,3104.18,599.48,596.65,57.53,0000 0000 0000 0000 000000
2016-09-21 07:46:13,-0.03,1.48,0.00,20.50,26.67,30.00,14.71,48.21,1009.91,2038.39,2923.97,2746.04,3104.03,600.07,597.30,57.59,0000 0000 0000 0000 000000
2016-09-21 07:51:14,-0.01,1.48,0.00,20.55,26.70,30.04,14.75,48.25,1010.05,2038.14,2923.57,2746.00,3104.00,600.06,597.24,57.64,0000 0000 0000 0000 000000
2016-09-21 07:56:15,0.00,1.48,0.00,20.48,26.71,30.08,14.71,48.23,1009.86,2038.06,2923.08,2746.00,3103.99,600.14,597.19,57.69,0000 0000 0000 0000 000000
2016-09-21 08:01:16,0.00,1.48,0.00,20.50,26.72,30.08,14.65,48.10,1009.79,2038.04,2923.00,2745.99,3103.93,600.13,597.20,57.74,0000 0000 0000 0000 000000
2016-09-21 08:06:18,0.00,1.48,0.00,20.57,26.74,30.14,14.73,48.27,1009.78,2038.02,2923.00,2745.96,3103.71,600.07,596.97,57.79,0000 0000 0000 0000 000000
2016-09-21 08:11:19,0.01,1.48,0.00,20.51,26.75,30.20,14.67,48.11,1009.78,2038.01,2922.99,2745.90,3103.21,600.09,597.07,57.84,0000 0000 0000 0000 000000
2016-09-21 08:16:20,0.02,1.48,0.00,20.58,26.77,30.22,14.68,48.23,1009.78,2038.02,2922.97,2745.58,3103.06,599.71,596.68,57.89,0000 0000 0000 0000 000000
2016-09-21 08:21:21,0.01,1.48,0.00,20.68,26.78,30.22,14.62,48.02,1009.78,2038.00,2922.70,2745.08,3103.01,599.72,596.40,57.94,0000 0000 0000 0000 000000
2016-09-21 08:26:22,0.01,1.48,0.00,20.65,26.80,30.21,14.63,48.11,1009.78,2038.00,2922.13,2745.01,3102.99,599.97,596.74,57.99,0000 0000 0000 0000 000000
2016-09-21 08:31:23,0.00,1.48,0.00,20.62,26.82,30.20,14.66,48.02,1009.78,2038.00,2922.01,2745.00,3102.97,599.86,596.66,58.04,0000 0000 0000 0000 000000
2016-09-21 08:36:24,0.00,1.48,0.00,20.54,26.82,30.21,14.71,47.92,1009.78,2037.98,2922.00,2744.99,3102.64,600.22,597.09,58.09,0000 0000 0000 0000 000000
2016-09-21 08:41:25,0.00,1.48,0.00,20.60,26.85,30.24,14.72,47.95,1009.78,2037.97,2921.97,2744.97,3102.13,600.43,597.28,58.14,0000 0000 0000 0000 000000
2016-09-21 08:46:26,0.01,1.48,0.00,20.57,26.86,30.21,14.72,47.99,1009.78,2037.91,2921.77,2744.75,3102.01,599.95,596.77,58.19,0000 0000 0000 0000 000000
2016-09-21 08:51:27,0.00,1.48,0.00,20.58,26.87,30.24,14.68,48.04,1009.74,2037.89,2921.53,2744.57,3102.00,599.95,596.76,58.24,0000 0000 0000 0000 000000
2016-09-21 08:56:29,-0.00,1.48,0.00,20.59,26.88,30.21,14.67,48.00,1009.73,2037.76,2921.13,2744.26,3102.00,600.17,597.09,58.29,0000 0000 0000 0000 000000
2016-09-21 09:01:30,-0.03,1.48,0.00,20.54,26.90,30.23,14.65,48.05,1009.53,2037.31,2921.01,2744.02,3101.98,600.40,597.10,58.34,0000 0000 0000 0000 000000
2016-09-21 09:06:31,-0.01,1.48,0.00,20.53,26.91,30.22,14.65,48.02,1009.39,2037.17,2921.00,2744.00,3101.88,600.03,596.75,58.39,0000 0000 0000 0000 000000
2016-09-21 09:11:33,0.00,1.48,0.00,20.56,26.92,30.21,14.74,48.09,1009.31,2037.07,2921.00,2744.00,3101.52,600.29,596.87,58.44,0000 0000 0000 0000 000000
2016-09-21 09:16:34,0.00,1.48,0.00,20.58,26.92,30.24,14.66,47.93,1009.29,2037.02,2920.99,2744.00,3101.14,600.07,596.74,58.49,0000 0000 0000 0000 000000
2016-09-21 09:21:35,0.01,1.48,0.00,20.57,26.95,30.21,14.68,47.94,1009.29,2037.00,2920.71,2743.99,3101.03,599.94,596.52,58.54,0000 0000 0000 0000 000000
2016-09-21 09:26:36,0.01,1.48,0.00,20.59,26.95,30.23,14.56,47.96,1009.30,2037.00,2920.11,2743.93,3101.00,599.86,596.47,58.60,0000 0000 0000 0000 000000
2016-09-21 09:31:38,0.00,1.48,0.00,20.65,26.95,30.23,14.71,47.98,1009.30,2037.00,2920.03,2743.87,3101.00,600.26,596.70,58.65,0000 0000 0000 0000 000000
2016-09-21 09:36:39,0.02,1.48,0.00,20.66,26.97,30.25,14.60,47.94,1009.29,2037.00,2920.00,2743.37,3100.99,599.98,596.47,58.70,0000 0000 0000 0000 000000
2016-09-21 09:41:41,0.01,1.48,0.00,20.60,26.97,30.24,14.64,47.88,1009.30,2037.00,2920.00,2743.13,3100.95,599.94,596.32,58.75,0000 0000 0000 0000 000000
2016-09-21 09:46:42,0.00,1.48,0.00,20.60,26.97,30.26,14.64,47.80,1009.29,2037.00,2920.00,2743.03,3100.75,600.06,596.64,58.80,0000 0000 0000 0000 000000
2016-09-21 09:51:43,0.00,1.48,0.00,20.64,26.98,30.25,14.64,47.79,1009.29,2037.00,2919.98,2743.01,3100.23,599.83,596.33,58.85,0000 0000 0000 0000 000000
2016-09-21 09:56:44,0.00,1.48,0.00,20.58,27.00,30.25,14.69,47.91,1009.26,2037.00,2919.88,2743.00,3100.04,600.01,596.69,58.90,0000 0000 0000 0000 000000
2016-09-21 10:01:45,0.01,1.48,0.00,20.51,27.00,30.25,14.55,47.87,1009.16,2036.99,2919.52,2743.00,3100.01,599.27,595.94,58.95,0000 0000 0000 0000 000000
2016-09-21 10:06:47,0.00,1.48,0.00,20.58,27.00,30.27,14.67,47.95,1008.99,2036.98,2919.17,2742.99,3100.00,599.61,596.12,59.00,0000 0000 0000 0000 000000
2016-09-21 10:11:48,-0.00,1.48,0.00,20.61,27.00,30.26,14.65,47.99,1008.86,2036.98,2919.04,2742.98,3100.00,600.20,596.43,59.05,0000 0000 0000 0000 000000
2016-09-21 10:16:49,-0.00,1.48,0.00,20.65,27.00,30.26,14.71,48.01,1008.86,2036.97,2919.00,2742.95,3100.00,600.39,596.68,59.10,0000 0000 0000 0000 000000
2016-09-21 10:21:50,0.00,1.48,0.00,20.58,27.01,30.27,14.64,48.05,1008.83,2036.98,2919.00,2742.87,3099.98,599.92,596.29,59.15,0000 0000 0000 0000 000000
2016-09-21 10:26:51,0.01,1.49,0.00,20.60,27.02,30.27,14.65,48.07,1008.80,2036.97,2918.98,2742.48,3099.91,599.77,596.03,59.20,0000 0000 0000 0000 000000
2016-09-21 10:31:53,0.01,1.49,0.00,20.63,27.02,30.29,14.70,48.11,1008.81,2036.93,2918.74,2742.11,3099.58,600.38,596.72,59.25,0000 0000 0000 0000 000000
2016-09-21 10:36:54,0.02,1.49,0.00,20.62,27.02,30.27,14.58,47.97,1008.80,2036.92,2918.25,2742.04,3099.25,599.81,596.10,59.30,0000 0000 0000 0000 000000
2016-09-21 10:41:55,0.01,1.49,0.00,20.68,27.02,30.25,14.66,48.04,1008.81,2036.92,2918.05,2742.01,3099.08,599.87,595.88,59.35,0000 0000 0000 0000 000000
2016-09-21 10:46:56,0.00,1.49,0.00,20.71,27.02,30.27,14.64,47.96,1008.81,2036.90,2918.00,2742.01,3099.02,599.78,595.86,59.40,0000 0000 0000 0000 000000
2016-09-21 10:51:57,-0.00,1.49,0.00,20.63,27.02,30.24,14.62,47.91,1008.81,2036.90,2918.00,2742.00,3099.00,599.94,596.16,59.45,0000 0000 0000 0000 000000
2016-09-21 10:56:58,0.00,1.49,0.00,20.66,27.02,30.22,14.65,47.83,1008.82,2036.88,2917.97,2742.00,3099.00,600.04,596.18,59.51,0000 0000 0000 0000 000000
2016-09-21 11:01:59,0.01,1.49,0.00,20.61,27.02,30.24,14.61,47.95,1008.80,2036.93,2917.91,2741.99,3099.00,599.59,595.91,59.56,0000 0000 0000 0000 000000
2016-09-21 11:07:01,0.00,1.49,0.00,20.58,27.02,30.27,14.68,47.83,1008.80,2036.95,2917.74,2741.99,3099.00,599.51,595.81,59.61,0000 0000 0000 0000 000000
2016-09-21 11:12:02,0.00,1.49,0.00,20.58,27.02,30.26,14.68,47.87,1008.80,2036.96,2917.33,2741.98,3098.99,600.10,596.41,59.66,0000 0000 0000 0000 000000
2016-09-21 11:17:03,0.00,1.49,0.00,20.56,27.02,30.27,14.62,47.88,1008.79,2036.95,2917.05,2741.96,3098.96,599.91,596.29,59.71,0000 0000 0000 0000 000000
2016-09-21 11:22:04,0.00,1.49,0.00,20.63,27.02,30.25,14.71,47.76,1008.74,2036.90,2917.01,2741.83,3098.75,600.35,596.61,59.76,0000 0000 0000 0000 000000
2016-09-21 11:27:06,0.00,1.49,0.00,20.61,27.02,30.24,14.63,47.86,1008.63,2036.86,2917.00,2741.55,3098.35,599.70,595.80,59.81,0000 0000 0000 0000 000000
2016-09-21 11:32:07,0.01,1.49,0.00,20.63,27.02,30.28,14.69,47.77,1008.41,2036.91,2917.00,2741.51,3098.21,600.48,596.40,59.86,0000 0000 0000 0000 000000
2016-09-21 11:37:08,0.01,1.49,0.00,20.59,27.02,30.26,14.63,47.83,1008.33,2036.96,2916.99,2741.48,3098.17,599.56,595.64,59.91,0000 0000 0000 0000 000000
2016-09-21 11:42:09,0.01,1.49,0.00,20.54,27.02,30.30,14.62,47.80,1008.32,2036.95,2916.98,2741.20,3098.05,599.75,595.87,59.96,0000 0000 0000 0000 000000
2016-09-21 11:47:11,0.01,1.49,0.00,20.59,27.02,30.27,14.63,47.72,1008.32,2036.96,2916.87,2741.09,3098.01,600.16,596.22,60.01,0000 0000 0000 0000 000000
2016-09-21 11:52:12,0.01,1.49,0.00,20.55,27.02,30.24,14.72,47.82,1008.32,2036.95,2916.28,2741.02,3098.00,600.06,596.08,60.06,0000 0000 0000 0000 000000
2016-09-21 11:57:13,0.01,1.49,0.00,20.55,27.02,30.26,14.73,48.10,1008.32,2036.94,2916.03,2741.00,3097.99,600.26,596.31,60.11,0000 0000 0000 0000 000000
2016-09-21 12:02:15,0.00,0.30,0.00,20.59,27.03,30.23,12.88,42.13,1008.30,2037.79,3399.76,3074.00,3483.76,533.54,530.07,0.00,0000 0000 0000 0000 000000
2016-09-21 12:07:16,0.00,0.00,0.00,20.55,27.02,30.22,14.72,47.66,1008.22,2038.00,3517.32,3156.29,3580.03,600.19,596.26,0.05,0000 0000 0000 0000 000000
2016-09-21 12:12:17,0.00,0.00,0.00,20.55,27.02,30.18,14.67,47.76,1007.93,2038.00,3516.27,3156.01,3579.60,599.95,595.85,0.10,0000 0000 0000 0000 000000
2016-09-21 12:17:18,0.00,0.00,0.00,20.52,27.02,30.20,14.62,47.74,1007.84,2038.00,3515.85,3155.99,3579.02,599.81,595.70,0.15,0000 0000 0000 0000 000000
2016-09-21 12:22:19,0.00,0.00,0.00,20.48,27.00,30.20,14.69,47.72,1007.85,2038.00,3515.10,3155.93,3578.97,600.33,596.36,0.20,0000 0000 0000 0000 000000
2016-09-21 12:27:20,0.01,0.00,0.00,20.47,27.00,30.22,14.66,47.60,1007.84,2037.99,3514.97,3155.43,3578.52,599.81,595.75,0.25,0000 0000 0000 0000 000000
2016-09-21 12:32:22,0.02,0.00,0.00,20.45,27.00,30.24,14.63,47.63,1007.84,2037.99,3514.43,3155.04,3578.02,599.74,595.77,0.30,0000 0000 0000 0000 000000
2016-09-21 12:37:23,0.00,0.00,0.00,20.46,27.00,30.24,14.70,47.79,1007.85,2037.99,3514.02,3155.00,3578.00,599.86,595.83,0.35,0000 0000 0000 0000 000000
2016-09-21 12:42:24,0.00,0.00,0.00,20.45,26.99,30.22,14.74,47.77,1007.84,2037.99,3514.00,3155.00,3577.95,600.19,596.29,0.40,0000 0000 0000 0000 000000
2016-09-21 12:47:25,0.01,0.00,0.00,20.39,26.97,30.25,14.69,47.76,1007.84,2037.99,3513.88,3155.00,3577.59,600.15,596.30,0.45,0000 0000 0000 0000 000000
2016-09-21 12:52:26,0.01,0.00,0.00,20.44,26.97,30.22,14.65,47.73,1007.83,2037.99,3513.36,3154.98,3577.17,600.19,596.31,0.50,0000 0000 0000 0000 000000
2016-09-21 12:57:28,0.01,0.00,0.00,20.48,26.97,30.21,14.64,47.65,1007.83,2037.99,3513.06,3154.98,3577.03,599.93,595.78,0.55,0000 0000 0000 0000 000000